Location: Czekan�w
(50.3488°N, 18.7344°E)
Time: 18:18:11
(UTC+00:00)

STARLINK-1133 - Pass Details

Date: 17 February 2020
Orbit: 375 x 385 km, 53.0° (Epoch: 28 March)

Event Time Altitude Azimuth Distance (km) Brightness Sun altitude
Exits shadow 03:27:14 30° 57° (ENE) 713 4.7 -24.0°
Drops below altitude 10° 03:29:03 10° 70° (ENE) 1,404 6.8 -23.7°
Enters shadow 04:23:12 -72° 267° (W) 12,536 10.5 -15.1°
Maximum altitude 05:02:03 54° 8° (N) 472 3.3 -8.9°
